When you browse on this site, cookies collect data to enhance your experience and personalize the content and advertising you see.
Visit our Privacy Policy to learn more. By continuing to use the site, you agree to this use of cookies and data.
  • In Hungary
  • List of Countries
  • For 7 days
  • Water Temperature
  • Weather Map
  • News
  • Weather Widgets
  • user-avatar
    Login

    Hourly Weather Escaldes-Engordany

    Today, 23 February, Sunday

    Time Temperature Precipitation Wind Pressure Humidity
    00:00 +6°C° 0 mm 1 mps 648 mmHg 38%
    01:00 +6°C° 0 mm 1 mps 647 mmHg 37%
    02:00 +6°C° 0 mm 1 mps 647 mmHg 36%
    03:00 +6°C° 0 mm 1 mps 647 mmHg 35%
    04:00 +6°C° 0 mm 1 mps 647 mmHg 35%
    05:00 +6°C° 0 mm 1 mps 647 mmHg 35%
    06:00 +6°C° 0 mm 1 mps 647 mmHg 35%
    07:00 +8°C° 0 mm 1 mps 648 mmHg 35%
    08:00 +10°C° 0 mm 1 mps 648 mmHg 35%
    09:00 +11°C° 0 mm 0 mps 649 mmHg 36%
    10:00 +13°C° 0 mm 0 mps 650 mmHg 33%
    11:00 +16°C° 0 mm 1 mps 650 mmHg 30%
    12:00 +18°C° 0 mm 1 mps 651 mmHg 28%
    13:00 +18°C° 0 mm 1 mps 650 mmHg 30%
    14:00 +18°C° 0 mm 1 mps 649 mmHg 33%
    15:00 +16°C° 0 mm 1 mps 649 mmHg 36%
    16:00 +14°C° 0 mm 1 mps 648 mmHg 44%
    17:00 +11°C° 0 mm 1 mps 647 mmHg 53%
    18:00 +8°C° 0 mm 1 mps 647 mmHg 61%
    19:00 +8°C° 0 mm 1 mps 646 mmHg 53%
    20:00 +7°C° 0 mm 2 mps 646 mmHg 44%
    21:00 +6°C° 0 mm 2 mps 646 mmHg 36%
    22:00 +6°C° 0 mm 2 mps 646 mmHg 33%
    23:00 +6°C° 0 mm 2 mps 646 mmHg 30%

    Tomorrow, 24 February, Monday

    Time Temperature Precipitation Wind Pressure Humidity
    00:00 +7°C° 0 mm 1 mps 646 mmHg 27%
    01:00 +7°C° 0 mm 1 mps 645 mmHg 26%
    02:00 +7°C° 0 mm 1 mps 645 mmHg 25%
    03:00 +7°C° 0 mm 1 mps 644 mmHg 25%
    04:00 +6°C° 0 mm 1 mps 644 mmHg 25%
    05:00 +6°C° 0 mm 1 mps 644 mmHg 26%
    06:00 +6°C° 0 mm 1 mps 644 mmHg 26%
    07:00 +8°C° 0 mm 1 mps 644 mmHg 27%
    08:00 +10°C° 0 mm 1 mps 645 mmHg 28%
    09:00 +11°C° 0 mm 0 mps 645 mmHg 29%
    10:00 +13°C° 0 mm 0 mps 646 mmHg 27%
    11:00 +15°C° 0 mm 1 mps 646 mmHg 26%
    12:00 +18°C° 0 mm 1 mps 646 mmHg 24%
    13:00 +18°C° 0 mm 1 mps 645 mmHg 26%
    14:00 +16°C° 0 mm 1 mps 644 mmHg 29%
    15:00 +16°C° 0 mm 1 mps 644 mmHg 31%
    16:00 +13°C° 0 mm 1 mps 643 mmHg 41%
    17:00 +11°C° 0 mm 1 mps 642 mmHg 51%
    18:00 +8°C° 0 mm 1 mps 640 mmHg 61%
    19:00 +7°C° 0 mm 1 mps 640 mmHg 56%
    20:00 +7°C° 0 mm 1 mps 640 mmHg 51%
    21:00 +5°C° 0 mm 2 mps 640 mmHg 46%
    22:00 +5°C° 0 mm 2 mps 640 mmHg 43%
    23:00 +5°C° 0 mm 2 mps 639 mmHg 41%

    Day after tomorrow, 25 February, Tuesday

    Time Temperature Precipitation Wind Pressure Humidity
    00:00 +4°C° 0 mm 2 mps 639 mmHg 39%
    01:00 +4°C° 0 mm 2 mps 639 mmHg 38%
    02:00 +4°C° 0 mm 2 mps 638 mmHg 38%
    03:00 +5°C° 0 mm 1 mps 638 mmHg 38%
    04:00 +5°C° 0 mm 1 mps 638 mmHg 38%
    05:00 +4°C° 0 mm 1 mps 638 mmHg 38%
    06:00 +4°C° 0 mm 1 mps 637 mmHg 38%
    07:00 +5°C° 0 mm 1 mps 638 mmHg 39%
    08:00 +6°C° 0 mm 1 mps 638 mmHg 40%
    09:00 +7°C° 0 mm 1 mps 639 mmHg 41%
    10:00 +8°C° 0 mm 1 mps 638 mmHg 42%
    11:00 +8°C° 0 mm 1 mps 638 mmHg 43%
    12:00 +9°C° 0 mm 1 mps 638 mmHg 44%
    13:00 +9°C° 0 mm 1 mps 638 mmHg 47%
    14:00 +9°C° 0 mm 1 mps 638 mmHg 50%
    15:00 +8°C° 0 mm 2 mps 637 mmHg 53%
    16:00 +7°C° 0 mm 2 mps 637 mmHg 64%
    17:00 +5°C° 0 mm 2 mps 636 mmHg 74%
    18:00 +3°C° 0 mm 2 mps 636 mmHg 85%
    19:00 +3°C° 0 mm 2 mps 636 mmHg 86%
    20:00 +2°C° 0 mm 2 mps 636 mmHg 86%
    21:00 +2°C° 0 mm 2 mps 636 mmHg 87%
    22:00 +1°C° 0 mm 2 mps 636 mmHg 87%
    23:00 +1°C° 0 mm 2 mps 635 mmHg 87%

    26 February, Wednesday

    Time Temperature Precipitation Wind Pressure Humidity
    00:00 +1°C° 0 mm 2 mps 635 mmHg 86%
    01:00 -1°C° 0 mm 2 mps 635 mmHg 85%
    02:00 -1°C° 0 mm 2 mps 634 mmHg 84%
    03:00 -1°C° 0 mm 2 mps 634 mmHg 83%
    04:00 -1°C° 0.1 mm 2 mps 634 mmHg 82%
    05:00 -1°C° 0.1 mm 2 mps 633 mmHg 81%
    06:00 -1°C° 0.1 mm 2 mps 633 mmHg 80%
    07:00 -1°C° 0.4 mm 3 mps 634 mmHg 73%
    08:00 0°C° 0.4 mm 3 mps 635 mmHg 67%
    09:00 +1°C° 0.4 mm 3 mps 636 mmHg 60%
    10:00 0°C° 0.5 mm 4 mps 636 mmHg 59%
    11:00 +1°C° 0.5 mm 4 mps 636 mmHg 57%
    12:00 +1°C° 0.5 mm 4 mps 636 mmHg 55%
    13:00 0°C° 0.2 mm 4 mps 636 mmHg 55%
    14:00 0°C° 0.2 mm 4 mps 636 mmHg 54%
    15:00 0°C° 0.2 mm 4 mps 636 mmHg 54%
    16:00 -2°C° 0.2 mm 4 mps 636 mmHg 61%
    17:00 -2°C° 0.2 mm 3 mps 636 mmHg 68%
    18:00 -4°C° 0.2 mm 3 mps 636 mmHg 75%
    19:00 -5°C° 0.2 mm 3 mps 636 mmHg 77%
    20:00 -5°C° 0.2 mm 3 mps 637 mmHg 78%
    21:00 -5°C° 0.2 mm 3 mps 637 mmHg 79%
    22:00 -5°C° 0.1 mm 2 mps 637 mmHg 80%
    23:00 -5°C° 0.1 mm 2 mps 637 mmHg 80%

    27 February, Thursday

    Time Temperature Precipitation Wind Pressure Humidity
    00:00 -5°C° 0.1 mm 2 mps 637 mmHg 80%
    01:00 -5°C° 0 mm 2 mps 637 mmHg 77%
    02:00 -3°C° 0 mm 1 mps 637 mmHg 75%
    03:00 -3°C° 0 mm 1 mps 637 mmHg 72%
    04:00 -3°C° 0 mm 1 mps 637 mmHg 68%
    05:00 -3°C° 0 mm 1 mps 637 mmHg 64%
    06:00 -3°C° 0 mm 1 mps 638 mmHg 59%
    07:00 0°C° 0 mm 1 mps 639 mmHg 53%
    08:00 +2°C° 0 mm 1 mps 640 mmHg 47%
    09:00 +4°C° 0 mm 1 mps 641 mmHg 40%
    10:00 +5°C° 0 mm 1 mps 641 mmHg 43%
    11:00 +7°C° 0 mm 1 mps 641 mmHg 45%
    12:00 +8°C° 0 mm 1 mps 641 mmHg 47%
    13:00 +8°C° 0 mm 1 mps 641 mmHg 50%
    14:00 +8°C° 0 mm 1 mps 641 mmHg 53%
    15:00 +8°C° 0 mm 1 mps 640 mmHg 55%
    16:00 +6°C° 0 mm 1 mps 640 mmHg 63%
    17:00 +4°C° 0 mm 1 mps 639 mmHg 71%
    18:00 +1°C° 0 mm 0 mps 638 mmHg 78%
    19:00 +2°C° 0 mm 1 mps 638 mmHg 75%
    20:00 +2°C° 0 mm 1 mps 639 mmHg 72%
    21:00 +2°C° 0 mm 1 mps 639 mmHg 69%
    22:00 +2°C° 0 mm 1 mps 639 mmHg 64%
    23:00 +2°C° 0 mm 1 mps 639 mmHg 60%

    28 February, Friday

    Time Temperature Precipitation Wind Pressure Humidity
    00:00 +3°C° 0 mm 1 mps 638 mmHg 56%
    01:00 +3°C° 0 mm 1 mps 638 mmHg 57%
    02:00 +2°C° 0 mm 1 mps 638 mmHg 57%
    03:00 +2°C° 0 mm 1 mps 637 mmHg 57%
    04:00 +2°C° 0 mm 1 mps 637 mmHg 58%
    05:00 +2°C° 0 mm 1 mps 636 mmHg 59%
    06:00 +2°C° 0 mm 1 mps 636 mmHg 60%
    07:00 +2°C° 0 mm 2 mps 636 mmHg 59%
    08:00 +4°C° 0 mm 2 mps 637 mmHg 57%
    09:00 +6°C° 0 mm 2 mps 637 mmHg 55%
    10:00 +7°C° 0 mm 2 mps 637 mmHg 53%
    11:00 +8°C° 0 mm 3 mps 637 mmHg 51%
    12:00 +9°C° 0 mm 3 mps 637 mmHg 49%
    13:00 +9°C° 0 mm 3 mps 637 mmHg 50%
    14:00 +9°C° 0 mm 3 mps 636 mmHg 52%
    15:00 +9°C° 0 mm 3 mps 635 mmHg 53%
    16:00 +8°C° 0 mm 3 mps 634 mmHg 60%
    17:00 +6°C° 0 mm 2 mps 633 mmHg 67%
    18:00 +4°C° 0 mm 2 mps 632 mmHg 74%
    19:00 +3°C° 0 mm 2 mps 632 mmHg 75%
    20:00 +3°C° 0 mm 2 mps 632 mmHg 77%
    21:00 +2°C° 0 mm 2 mps 632 mmHg 79%
    22:00 +2°C° 0 mm 2 mps 631 mmHg 80%
    23:00 +2°C° 0 mm 2 mps 631 mmHg 81%
    Show more